Location: Red Bud (historical)
(37.7759°N, 88.4053°W)
Time: 21:52:41
(UTC+00:00)

Nauka - Pass Details

Date: 20 September 2021
Orbit: 418 x 423 km, 51.6° (Epoch: 21 October)

Event Time Altitude Azimuth Distance (km) Brightness Sun altitude
Rises 01:48:27 0° 280° (W) 2,358 ? -22.8°
Reaches altitude 10° 01:51:23 10° 308° (NW) 1,498 ? -23.4°
Maximum altitude 01:53:10 14° 340° (NNW) 1,302 ? -23.7°
Enters shadow 01:54:29 11° 5° (N) 1,416 ? -23.9°
